Regional Weather Roundup
Issued by NWS Cleveland, OH

Home | Current Version | Previous Version | Text Only | Print | Product List | Glossary On
Versions: 1 2 3 4 5 6 7 8 9 10 11 12 13 14 15 16 17 18 19 20 21 22 23 24 25 26 27 28 29 30 31 32 33 34 35 36 37 38 39 40 41 42 43 44 45 46 47 48 49 50
000
ASUS41 KCLE 312210
RWRCLE
OHIO REGIONAL WEATHER ROUNDUP
NATIONAL WEATHER SERVICE WILMINGTON, OH
600 PM EDT FRI OCT 31 2014

NOTE: "FAIR" INDICATES FEW OR NO CLOUDS BELOW 12,000 FEET WITH NO
SIGNIFICANT WEATHER AND/OR OBSTRUCTIONS TO VISIBILITY.

OHZ001>008-015>018-024>027-034-035-043-044-312300-
   NORTHWEST OHIO

CITY           SKY/WX    TMP DP  RH WIND       PRES   REMARKS
DEFIANCE       LGT RAIN  39  34  82 N20G39    29.98R
FINDLAY        LGT RAIN  41  37  86 N20       29.90R
TOLEDO EXPRESS LGT SNOW  37  36  93 N21G30    29.96R FOG
TOLEDO METCALF LGT RAIN  40  35  83 N22G33    29.95R
LIMA           LGT RAIN  42  38  85 NW12      29.91R
$$

OHZ009>014-019>023-028>033-038-089-312300-
   NORTHEAST OHIO

CITY           SKY/WX    TMP DP  RH WIND       PRES   REMARKS
CLE-HOPKINS    LGT RAIN  44  40  85 N3        29.89R FOG
CLE-LAKEFRONT  LGT RAIN N/A N/A N/A NW6       29.87R
CUY CO. ARPT   CLOUDY    46  43  87 NW6       29.87R
LORAIN-ELYRIA  LGT RAIN  44  38  79 CALM      29.87R
ASHTABULA      CLOUDY    46  38  73 CALM      29.87R
AKRON-CANTON   LGT RAIN  46  40  79 CALM      29.85R
WOOSTER        LGT RAIN  44  39  82 CALM      29.86R
MANSFIELD      LGT RAIN  41  40  96 W5        29.85R FOG
YOUNGSTOWN     LGT RAIN  44  40  85 SE3       29.86R
$$

OHZ042-051>053-060>062-070>072-077>081-312300-
  SOUTHWEST OHIO

CITY           SKY/WX    TMP DP  RH WIND       PRES   REMARKS
CINC-COVINGTON CLOUDY    40  34  79 NW17      29.95R
CINC-LUNKEN    CLOUDY    41  36  82 NW7       29.97R
HAMILTON       CLOUDY    41  37  86 NW15      29.96R
DAYTON         LGT RAIN  41  38  89 NW8       29.92R
WRIGHT-PAT AFB DRIZZLE   41  37  87 NW8       29.92R
DAYTON GENERAL LGT RAIN  41  38  89 W7        29.91R
WILMINGTON     LGT RAIN  39  36  89 NW13      29.90R
$$

OHZ036-037-039>041-045>050-054>059-063>069-073>076-082>088-312300-
  CENTRAL AND SOUTHEAST OHIO

CITY           SKY/WX    TMP DP  RH WIND       PRES   REMARKS
COLUMBUS       LGT RAIN  42  40  92 NW8       29.87R
OSU AIRPORT    LGT RAIN  41  38  89 NW10      29.88R
BOLTON FIELD   LGT RAIN  41  39  93 NW8G16    29.88R
RICKENBACK AFB DRIZZLE   41  38  89 NW9       29.87R
NEWARK         LGT RAIN  44  40  85 CALM      29.85S FOG
MARION         LGT RAIN  41  37  86 N13       29.88R
LANCASTER      LGT RAIN  42  39  89 NW8       29.86R
ZANESVILLE     LGT RAIN  44  40  85 SW3       29.86R
NEW PHILLY     LGT RAIN  45  41  86 SE3       29.87R
$$



USA.gov is the U.S. government's official web portal to all federal, state and local government web resources and services.